Location: Gr�ningen
(47.2812°N, 8.7593°E)
Time: 14:47:40
(UTC+00:00)

Daily predictions for brighter satellites

Satellite Brightness Start Highest point End
(mag) Time Altitude Azimuth Time Altitude Azimuth Time Altitude Azimuth
COSMOS 2455 3.5 16:01:20 10° S 16:06:50 38° ESE 16:12:22 10° NE
Spot 1 4.5 16:07:07 10° NNE 16:11:51 62° ESE 16:16:48 10° S
Cosmos 2322 Rocket 3.7 16:10:36 10° N 16:13:58 16° NE 16:17:19 10° ENE
Cosmos 1697 Rocket 2.7 16:08:46 10° NNW 16:14:26 83° ENE 16:20:04 10° SSE
CZ-4C R/B 3.1 16:09:03 10° NW 16:15:51 52° NE 16:23:51 10° ESE
Cosmos 468 Rocket 4.0 16:13:00 10° SSW 16:18:09 84° ESE 16:23:24 10° NNE
Cosmos 1980 Rocket 2.4 16:14:06 10° NNW 16:19:39 51° ENE 16:25:07 10° SE
NOAA 12 4.1 16:16:00 10° SSE 16:21:19 79° ENE 16:26:39 10° NNW
ATLAS CENTAUR R/B 3.2 16:13:30 10° SW 16:24:32 79° SE 16:28:48 11° NE
Meteor PRIRODA 3.6 16:21:38 10° SSE 16:25:16 86° WSW 16:28:55 10° NNW
COSMO-SKYMED 1 4.2 16:22:58 10° NE 16:25:29 15° E 16:27:59 10° SE
Cosmos 1898 Rocket 3.7 16:20:24 10° NNW 16:25:40 79° WSW 16:30:51 10° SSE
Cosmos 2369 3.7 16:20:43 10° NNW 16:26:29 70° ENE 16:32:11 10° SE
Cosmos 1933 3.3 16:23:27 10° S 16:27:26 63° E 16:31:26 10° NNE
USA 305 3.8 16:25:22 10° WNW 16:29:15 33° N 16:32:38 13° ENE
Cosmos 1633 Rocket 4.0 16:25:46 10° NNE 16:29:27 26° ENE 16:33:07 10° SE
FengYun 1-2 T 4.2 16:24:19 10° SSE 16:29:52 78° ENE 16:35:26 10° NNW
Cosmos 2034 Rocket 4.1 16:23:54 10° SSW 16:30:03 80° W 16:36:15 10° N
CZ-4B R/B 2.9 16:26:28 10° SSE 16:30:28 81° WSW 16:34:17 10° NNW
Cosmos 1812 3.8 16:27:56 10° SSE 16:31:09 26° E 16:34:23 10° NNE
NOSS 2-2 (C) 4.3 16:26:13 10° NW 16:31:18 75° NE 16:38:29 10° SE
CORIOLIS 4.2 16:26:17 10° SSE 16:31:35 59° ENE 16:36:56 10° N
Cosmos 1818 4.1 16:27:12 10° NNW 16:32:17 37° NE 16:37:20 10° ESE
SL-16 R/B 3.3 16:29:05 10° N 16:33:37 24° NE 16:38:08 10° E
AQUARIUS 4.2 16:31:42 10° SSE 16:36:06 59° ENE 16:40:32 10° N
Cosmos 1151 Rocket 3.9 16:32:37 10° SSE 16:36:22 29° E 16:40:09 10° NNE
Cosmos 2082 Rocket 2.4 16:31:47 10° S 16:37:16 51° ESE 16:42:45 10° NE
USA 267 3.3 16:32:04 11° NE 16:38:32 76° SE 16:45:04 10° SW
SMAP 3.0 16:36:17 10° SSE 16:40:55 78° ENE 16:45:36 10° N
Meteor 2-14 Rocket 4.4 16:36:15 10° N 16:42:23 71° ENE 16:48:25 10° SSE
Meteor 1-14 Rocket 4.5 16:38:11 10° N 16:43:52 50° ENE 16:49:36 10° SSE
Cosmos 1743 Rocket 4.4 16:41:41 10° NNW 16:45:54 52° W 16:50:06 10° S
ARGOS 3.8 16:42:52 10° SE 16:47:38 33° ENE 16:52:24 10° N
MOS 1-B 4.4 16:42:07 10° SE 16:47:40 53° ENE 16:53:18 10° N
Cosmos 1763 Rocket 4.1 16:43:01 10° SW 16:47:59 54° WNW 16:53:02 10° NNE
Cosmos 2333 Rocket 4.0 16:46:02 10° N 16:48:09 12° NNE 16:49:03 12° NE
Cosmos 1634 Rocket 4.0 16:42:32 10° S 16:48:49 71° E 16:55:08 10° NNE
Cosmos 2278 3.7 16:44:04 10° NNW 16:49:45 62° ENE 16:55:22 10° SE
Cosmos 2026 Rocket 3.9 16:44:17 10° N 16:50:28 85° E 16:56:32 10° S
Cosmos 1602 4.1 16:47:04 10° NNW 16:50:54 68° W 16:54:45 10° S
CZ-4B DEB 4.1 16:45:26 10° SSE 16:50:55 74° ENE 16:56:24 10° NNW
Cosmos 44 Rocket 3.6 16:49:43 10° NNW 16:54:29 45° NE 16:59:05 10° ESE
Cosmos 1833 Rocket 3.2 16:49:26 10° SW 16:54:59 60° WNW 17:00:35 10° NNE
CZ-2C R/B 4.1 16:51:26 10° S 16:56:05 44° W 17:00:39 10° NNW
Cosmos 841 Rocket 3.4 16:51:05 10° SSW 16:56:14 84° ESE 17:01:25 10° NNE
Cosmos 1666 Rocket 3.6 16:52:53 10° N 16:57:17 57° ENE 17:01:37 10° SSE
Okean O Rocket 2.3 16:53:41 10° SE 16:57:38 33° ENE 17:01:38 10° N
MOS 1-B Rocket 4.3 16:52:35 10° NNE 16:58:26 51° E 17:05:04 10° S
Cosmos 1328 Rocket 4.1 16:55:55 10° SSE 17:00:00 37° E 17:03:23 14° NNE
Cosmos 1470 Rocket 4.3 16:56:36 10° N 17:00:36 32° ENE 17:04:37 10° SE
H-2A R/B 1.9 16:56:05 10° SSE 17:01:09 63° ENE 17:06:07 10° N
USA 306 3.6 16:57:43 10° WNW 17:01:42 37° NNE 17:03:36 24° ENE
Cosmos 1937 Rocket 4.4 16:57:12 10° NNW 17:02:23 54° WSW 17:07:32 10° S
Cosmos 1939 Rocket 3.7 16:58:26 10° S 17:02:28 56° W 17:06:29 10° NNW
COSMOS 2406 3.6 16:58:25 10° SW 17:04:08 66° WNW 17:09:51 10° NNE
Cosmos 2219 Rocket 4.1 17:02:44 10° N 17:04:46 12° NNE 17:04:46 12° NNE
ISS -2.9 17:01:49 10° WNW 17:05:07 49° SSW 17:08:21 10° SE
ATLAS 2AS CENTAUR R/B 4.3 17:00:51 10° NW 17:06:35 22° N 17:10:37 15° NE
Cosmos 372 Rocket 4.2 17:02:02 10° NNW 17:07:16 75° WSW 17:12:30 10° SSE
CZ-2C R/B 2.9 17:03:05 10° NNE 17:08:02 42° E 17:12:54 10° SSE
Meteor 2-21 Rocket 4.4 17:02:06 10° N 17:08:15 82° E 17:14:18 10° S
Cosmos 1125 Rocket 4.0 17:03:49 10° N 17:08:42 37° ENE 17:13:33 10° SE
Cosmos 1500 3.7 17:07:07 10° NNW 17:10:48 60° W 17:14:28 10° S
USA 234 3.3 17:05:59 10° SE 17:12:32 83° SW 17:19:07 10° NW
SKYMED 2 3.9 17:11:18 20° NE 17:13:56 43° E 17:18:04 10° S
Cosmos 1782 3.5 17:12:36 10° SSW 17:16:31 55° WNW 17:20:27 10° N
Cosmos 1900 4.4 17:11:48 10° SSW 17:16:32 54° ESE 17:18:52 28° NE
CZ-2D R/B 3.3 17:14:01 10° S 17:17:51 79° W 17:21:41 10° NNW
Sich 1 4.1 17:14:14 10° NNW 17:18:23 48° W 17:22:31 10° SSW
Cosmos 1655 Rocket 4.2 17:12:53 10° N 17:19:05 50° ENE 17:25:14 10° SSE
CZ-4B R/B 3.0 17:14:46 10° SSE 17:20:08 71° ENE 17:25:27 10° N
USA 307 3.5 17:17:22 10° NW 17:21:24 40° NNE 17:22:25 34° NE
Cosmos 2180 Rocket 4.5 17:16:14 10° S 17:22:27 63° E 17:28:39 10° NNE
Meteor 2-6 Rocket 4.2 17:17:02 10° S 17:22:40 62° E 17:28:11 10° NNE
APEX 4.4 17:20:55 10° S 17:23:25 24° SE 17:23:25 24° SE
SJ-11-01 4.2 17:19:47 10° SSE 17:24:27 61° ENE 17:29:09 10° N
ATLAS 5 CENTAUR R/B 2.1 17:18:53 10° NW 17:25:48 47° NNE 17:26:27 41° ENE
PAYLOAD B 4.4 17:20:45 10° S 17:26:22 76° WSW 17:31:59 10° NNW
deb Chang Zheng 4 3.4 17:25:58 10° SSE 17:30:16 78° ENE 17:34:36 10° NNW
ERBS 4.5 17:29:27 10° NNW 17:30:53 14° N 17:30:53 14° N
Cosmos 2360 Rocket 3.0 17:32:39 10° NNW 17:37:21 31° NE 17:37:21 31° NE
Lacrosse 5 rocket 1.1 17:34:19 10° NW 17:38:16 85° NE 17:39:13 52° ESE
Cosmos 1666 3.5 17:36:16 10° NNW 17:39:52 50° W 17:43:28 10° S
USA 308 3.2 17:39:58 10° NW 17:44:06 46° NNE 17:44:08 46° NNE
Cosmos 1515 Rocket 3.5 17:40:13 10° S 17:44:35 58° E 17:44:48 58° E
Meteor 1-10 Rocket 4.1 17:46:24 10° S 17:52:10 79° E 17:56:15 20° NNE
COSMOS 2455 3.7 17:46:56 10° WSW 17:52:42 46° NW 17:56:40 20° NNE
Meteor 1-11 Rocket 3.6 17:47:05 10° N 17:52:44 72° ENE 17:58:28 10° SSE
Cosmos 921 Rocket 2.8 17:53:25 10° SSW 17:57:36 86° WNW 17:57:55 76° N
Cosmos 2322 Rocket 2.1 17:53:31 10° NNW 17:59:12 64° ENE 18:00:16 53° ESE
SL-08 RB Rocket 3.6 17:54:57 10° SSE 17:59:35 89° SW 18:04:13 10° NNW
COSMO-SKYMED 1 3.0 17:59:55 28° N 18:02:03 61° WNW 18:06:19 10° SSW
Cosmos 2298 Rocket 4.1 17:57:04 10° NNW 18:02:25 76° WSW 18:07:43 10° SSE
Cosmos 1980 Rocket 4.2 17:58:36 10° NW 18:03:21 28° WSW 18:08:04 10° SSW
CZ-4C R/B 3.8 17:57:34 10° NW 18:04:41 53° WSW 18:12:50 10° SSE
Meteor 2-15 Rocket 4.3 18:03:04 10° S 18:09:11 88° E 18:14:06 17° N
USA 305 3.6 18:05:24 10° WNW 18:08:38 47° NNW 18:08:38 47° NNW
Feng Yun 1-1 Rocket 4.3 18:04:51 10° SSE 18:10:47 85° WSW 18:16:41 10° NNW
YAOGAN 1 4.5 18:14:04 20° NNW 18:14:04 20° NNW 18:15:25 10° NNW
CZ-2C R/B 3.7 18:12:50 10° SSW 18:14:25 14° S 18:14:25 14° S
Cosmos 1818 4.4 18:10:46 10° NW 18:16:01 48° WSW 18:20:30 14° S
Cosmos 2266 Rocket 4.3 18:11:51 10° NNW 18:18:11 69° W 18:24:33 10° S
SL-16 R/B 2.3 18:12:39 10° NNW 18:18:20 74° WSW 18:21:04 32° SSE
Aureole 3 Rocket 4.3 18:14:02 10° S 18:26:48 - N 18:16:26 36° S
USA 267 3.8 18:19:25 39° NNE 18:21:22 50° NNW 18:27:37 10° W
Cosmos 2082 Rocket 3.7 18:16:36 10° WSW 18:21:36 31° NW 18:24:53 18° N
Landsat 5 4.4 18:25:10 44° W 18:25:10 44° W 18:28:24 10° SW
ARGOS 4.4 18:22:43 10° SSW 18:27:47 41° W 18:32:53 10° NNW
GEOS 3 Rocket 3.8 18:30:36 64° NNW 18:30:36 64° NNW 18:34:58 10° NW
Okean O Rocket 3.5 18:30:07 10° SSW 18:33:59 29° W 18:37:54 10° NW
Cosmos 2333 Rocket 3.7 18:28:36 10° NNW 18:31:06 24° N 18:31:06 24° N
Cosmos 1867 4.4 18:35:08 10° SSW 18:38:42 42° SSW 18:38:42 42° SSW
CZ-2C R/B 4.3 18:44:29 14° N 18:48:10 29° WNW 18:52:34 10° WSW
Cosmos 2219 Rocket 4.1 18:44:54 10° NNW 18:46:30 19° N 18:46:30 19° N
ATLAS CENTAUR R/B 4.3 18:51:13 10° WNW 18:54:28 20° NW 18:54:28 20° NW
NOSS 3-4 (A) 4.5 18:50:23 10° NW 18:55:00 41° N 18:55:00 41° N
NOSS 3-4 (C) 4.5 18:50:29 10° NW 18:55:05 41° N 18:55:05 41° N
Meteor 1-27 Rocket 4.4 18:51:50 10° SSW 18:56:41 49° W 18:56:41 49° W
ATLAS 2AS CENTAUR R/B 4.0 18:53:21 10° NW 18:58:02 29° N 18:58:02 29° N
Lacrosse 5 rocket 4.5 19:14:20 10° W 19:14:52 12° W 19:14:52 12° W
Cosmos 2360 Rocket 3.9 19:16:27 10° NW 19:19:09 28° NW 19:19:09 28° NW
Cosmos 2322 Rocket 4.3 19:38:26 10° NW 19:42:10 22° W 19:42:10 22° W
